Regional Weather Roundup
Issued by NWS

Home | Current Version | Previous Version | Graphics & Text | Print | Product List | Glossary On
Versions: 1 2 3 4 5 6 7 8 9 10 11 12 13 14 15 16 17 18 19 20 21 22 23 24 25 26 27 28 29 30 31 32 33 34 35 36 37 38 39 40 41 42 43 44 45 46 47 48 49 50
000
ASUS43 KLOT 200858
RWRIL

ILLINOIS REGIONAL WEATHER ROUNDUP
NATIONAL WEATHER SERVICE CHICAGO/ROMEOVILLE IL
400 AM CDT SAT SEP 20 2014

NOTE: "FAIR" INDICATES FEW OR NO CLOUDS BELOW 12,000 FEET WITH NO
SIGNIFICANT WEATHER AND/OR OBSTRUCTIONS TO VISIBILITY.

* THESE STATIONS ARE NOT UNDER NWS QUALITY CONTROL. THEY ALSO MAY NOT
  REPORT WEATHER SUCH AS PRECIPITATION OR FOG.

ILZ001-002-007-009-015-016-024-201000-
NORTHWEST ILLINOIS

CITY           SKY/WX    TMP DP  RH WIND       PRES   REMARKS
MOLINE         CLOUDY    63  57  81 S8        29.89F
$$

ILZ003-004-008-010-011-017-018-201000-
NORTH CENTRAL ILLINOIS

CITY           SKY/WX    TMP DP  RH WIND       PRES   REMARKS
ROCKFORD       NOT AVBL
$$

ILZ005-006-012>014-019>023-201000-
NORTHEAST ILLINOIS

CITY           SKY/WX    TMP DP  RH WIND       PRES   REMARKS
CHICAGO-OHARE  CLOUDY    64  52  64 SW13G22   29.90F
CHICAGO-MIDWAY CLOUDY    63  53  70 SW12      29.92F
AURORA         MOCLDY    57  51  80 S7        29.93F
WAUKEGAN       MOCLDY    64  53  67 SW17G24   29.88R
DUPAGE AIRPORT MOCLDY    59  52  77 S9        29.92F
WHEELING       MOCLDY    65  52  62 SW12      29.92S
NORTHERLY ISL    N/A     64  51  62 S8          N/A
$$

LMZ740>746-201000-
SOUTHERN LAKE MICHIGAN

STATION/POSITION SKY/WX   TEMP    WIND        PRES    VSBY  WAVE
                          AIR SEA DIR/SP/G                  HT/PER
                          (F)     (DEG/KT/KT) (MB)    (MI)  (FT/S)
SOUTHERN BUOY              65 64  200/ 23/ 27 1011.1F         4/ 5
WAUKEGAN HARBOR            66     220/ 16/ 22   N/A
HARRISON CRIB              64     200/ 23/ 26   N/A
BURNHAM HARBOR             63     220/  7/ 12   N/A
CALUMET HARBOR             63     200/ 11/ 14 1012.3F
MICHIGAN CITY              62     160/ 15/ 21   N/A
MICHIGAN CITY 6N           64 65  200/ 17/ 21   N/A           2/ 3
ST. JOSEPH                 65 65  180/ 16/ 19   N/A           3/ 4
$$

ILZ025>027-034>036-040-047-049-050-058-095>099-201000-
WEST-CENTRAL ILLINOIS

CITY           SKY/WX    TMP DP  RH WIND       PRES   REMARKS
$$

ILZ028>032-037-038-041>044-048-051>054-059>061-201000-
CENTRAL ILLINOIS

CITY           SKY/WX    TMP DP  RH WIND       PRES   REMARKS
PEORIA         NOT AVBL
SPRINGFIELD    PTCLDY    62  57  83 S7        29.97F
TAYLORVILLE    NOT AVBL
$$

ILZ033-039-045-046-055>057-062-063-201000-
EAST-CENTRAL ILLINOIS

CITY           SKY/WX    TMP DP  RH WIND       PRES   REMARKS
MATTOON        CLEAR     59  54  83 S6        30.01R
$$

ILZ079-100>102-201000-
SOUTHWEST ILLINOIS

CITY           SKY/WX    TMP DP  RH WIND       PRES   REMARKS
BELLEVILLE     CLEAR     55  55 100 CALM      30.00S FOG
CAHOKIA*       CLEAR     57  56  96 CALM      30.00R FOG
$$

ILZ064>066-069>071-074>076-080>082-084>086-088>090-092>094-201000-
SOUTH-CENTRAL ILLINOIS

CITY           SKY/WX    TMP DP  RH WIND       PRES   REMARKS
CARBONDALE     CLEAR     55  54  96 CALM      30.01S FOG
$$

ILZ067-068-072-073-078-083-087-091-201000-
SOUTHEAST ILLINOIS

CITY           SKY/WX    TMP DP  RH WIND       PRES   REMARKS
LAWRENCEVILLE  CLEAR     54  53  97 CALM      30.03R FOG
$$

ABBREVIATIONS USED IN REMARKS
   TC - TEMPERATURE IN CELSIUS
  WCI - WIND CHILL INDEX
   HX - HEAT INDEX
  VSB - VISIBILITY
$$



USA.gov is the U.S. government's official web portal to all federal, state and local government web resources and services.